Location: ?
(35.4214°N, 139.3011°E)
Time: 00:46:29
(UTC+00:00)

Hubble Space Telescope - Visible Passes

Search period start: 21 September 2020 00:00
Search period end: 01 October 2020 00:00
Orbit: 536 x 540 km, 28.5° (Epoch: 20 September)

Date Brightness Start Highest point End Pass type
(mag) Time Alt. Az. Time Alt. Az. Time Alt. Az.
23 Sep 3.3 19:19:10 10° S 19:20:29 11° SSE 19:21:49 10° SE visible
24 Sep 3.1 19:07:44 11° S 19:09:39 14° SSE 19:11:48 10° SE visible
25 Sep 2.9 18:57:47 15° S 18:58:49 16° SSE 19:01:27 10° ESE visible
26 Sep 2.7 18:47:47 19° SSE 18:48:00 19° SSE 18:50:58 10° ESE visible
27 Sep 2.6 18:37:45 21° SSE 18:37:45 21° SSE 18:40:23 10° ESE visible
28 Sep 2.8 18:27:42 21° SE 18:27:42 21° SE 18:29:45 10° ESE visible
28 Sep 2.0 20:03:29 10° WSW 20:07:08 31° S 20:10:47 10° ESE visible
29 Sep 3.1 18:17:38 18° SE 18:17:38 18° SE 18:19:05 10° ESE visible
29 Sep 2.0 19:52:58 11° WSW 19:56:21 30° S 19:59:58 10° ESE visible
30 Sep 3.5 18:07:35 14° ESE 18:07:35 14° ESE 18:08:22 10° ESE visible
30 Sep 2.0 19:42:55 15° WSW 19:45:34 28° S 19:49:08 10° SE visible
